COSMOS 2251 DEB, 33936

Orbit data source: Space-Track

COSMOS 2251 DEB, 33936 is space debris in LEO originally from a launch on Wed, 16 Jun 1993 UTC launched from the Plesetsk Missile And Space Complex (PKMTR). The debris from Iridium 33, an American commercial communications satellite, has been tracked extensively since its accidental collision with the defunct Russian satellite Cosmos 2251 in 2009. This event, occurring at high speed in low Earth orbit (LEO), generated thousands of pieces of space debris, significantly increasing the risk of further collisions. The Iridium 33 debris cloud has impacted space traffic management and orbital debris mitigation strategies, making it a subject of ongoing study in space situational awareness.

Loading next visibility...
Identifier
33936, 1993-036ER
Orbit
LEO
Country
Flag of CISCIS
Related business
Manufacturer
Unknown
Mission
Spacecraft
Bus & Motor
Unknown
Mass
Unknown
Launch date (UTC)
1993-06-16 (32 years ago)
Launch vehicle
Unknown
Launch site
Plesetsk Missile And Space Complex (PKMTR)
Object type
Payload
Rocket body
Debris
Shape & HBR
Unknown shape, 0.2 m
Radar Cross Section
Small (<0.1 m²)

Expand to show TLE details & history
Last TLE update: 17 hours ago

TLE from 17 hours ago
0 COSMOS 2251 DEB
1 33936U 93036ER  25309.70072975  .00004122  00000-0  86299-3 0  9997
2 33936  74.0158 108.2486 0028815 268.2407  91.5458 14.59834322883498
Epoch: 2025-11-05T16:49Z
TLE epoch observation values (Epoch: 2025-11-05T16:49:03.050Z)
Latitude
-0.00002°
Longitude
170.81626°
Altitude
696.956 km
Speed
7.507 km/s
True Right ascension
07h 12m 59s
True Declination
0° 00' 00"
Sunlit
Object was in daylight at epoch
Visualization orbit readout
Latitude
Unknown
Longitude
Unknown
Altitude
Unknown
Speed
Unknown
Apparent Right ascension
Unknown
Apparent Declination
Unknown
Sunlit
N/A
Visualization observer readout
Local Sidereal Time
05:43:16
Azimuth
Unknown
Elevation
Unknown
Doppler factor
Unknown
Orbital elements
Apogee altitude
711.679 km
Perigee altitude
670.938 km
Semi-major axis
7,069.445 km
Eccentricity
0.00288
Inclination
74.0158°
RAAN
108.2486°
Arg. of periapsis
268.2407°
True anomaly
91.87584°
Mean anomaly
91.5458°
Eccentric anomaly
91.71082°
Mean motion
3.65145 °/min
Orbital period
98.59 mins
BSTAR
0.00086299
Loading maneuver chart data...
Computing Atmospheric mass density...

Documentation

Showing up to 5 results
|